Location: Unspecified
(0.0000°N, 0.0000°E)
Time: 10:22:00
(UTC+00:00)

A-11 Canister half - Pass Details

Date: 07 August 2021
Orbit: 1515 x 1685 km, 47.2° (Epoch: 27 September)

Event Time Altitude Azimuth Distance (km) Brightness Sun altitude
Rises 01:28:11 0° 300° (WNW) 4,924 - -63.9°
Reaches altitude 10° 01:31:44 10° 292° (WNW) 3,928 - -63.2°
Maximum altitude 01:40:38 36° 230° (SW) 2,412 - -61.5°
Drops below altitude 10° 01:49:22 10° 167° (SSE) 3,837 - -59.7°
Sets 01:52:50 0° 158° (SSE) 4,798 - -58.9°
